Flag for Germany Weather past 2 weeks in Erlangen, Bavaria, Germany

Now
34 °F

Partly cloudy.


Feels Like: 29 °F
Forecast: 31 / 38 °F
Wind: 6 mph from West

Location: Nuernberg

Current Time: Jan 28, 2015 at 3:03:52 AM

Latest Report: Jan 28, 2015 at 2:20 AM


Visibility: N/A

Pressure: 30.12 "Hg

Humidity: 93%

Dew point: 32 °F

Location of ErlangenLocation

Historic Weather in Erlangen — Graph

°F

Erlangen temperature yesterday

Maximum temperature yesterday: 36 °F (at 5:50 AM)
Minimum temperature yesterday: 32 °F (at 12:20 AM)
Average temperature yesterday: 34 °F

Past Weeks' High & Low Weather Summary

 TemperatureHumidityPressure
High54 °F (Jan 13, 1:50 PM)100% (Jan 15, 2:50 AM)30.36 "Hg (Jan 15, 2:50 AM)
Low27 °F (Jan 21, 5:20 AM)38% (Jan 13, 1:50 PM)29.68 "Hg (Jan 16, 6:20 PM)
Average36 °F86%29.99 "Hg
* Reported Jan 13 1:20 AM — Jan 28 1:50 AM, Erlangen, Weather by CustomWeather, © 2014

Note: Actual official high and low records may vary slightly from our data, if they occured in-between our weather recording intervals... More about our weather records

Advertising

Erlangen weather history for previous 24 hours

 ConditionsComfort  
Time TempWeatherWind HumidityBarometerVisibility
1:50 AM
Jan 28
34 °FPartly cloudy.6 mph93%30.12 "HgN/A
1:20 AM34 °FPassing clouds.5 mph100%30.12 "HgN/A
12:50 AM34 °FPartly cloudy.6 mph93%30.12 "HgN/A
12:20 AM34 °FPartly cloudy.6 mph93%30.12 "HgN/A
11:50 PM
Jan 27
34 °FPassing clouds.5 mph93%30.12 "HgN/A
11:20 PM34 °FPassing clouds.7 mph93%30.12 "HgN/A
10:50 PM34 °FPassing clouds.3 mph93%30.12 "HgN/A
10:20 PM34 °FPassing clouds.2 mph93%30.12 "HgN/A
9:50 PM34 °FPartly cloudy.5 mph93%30.12 "HgN/A
9:20 PM34 °FPartly cloudy.5 mph93%30.12 "HgN/A
8:50 PM34 °FPassing clouds.3 mph93%30.12 "HgN/A
8:20 PM34 °FPassing clouds.3 mph93%30.12 "HgN/A
7:50 PM34 °FPartly cloudy.2 mph93%30.12 "HgN/A
7:20 PM34 °FPartly cloudy.2 mph100%30.12 "HgN/A
6:50 PM34 °FPassing clouds.5 mph93%30.12 "HgN/A
6:20 PM34 °FPassing clouds.3 mph93%30.12 "HgN/A
5:50 PM34 °FPartly cloudy.5 mph93%30.09 "HgN/A
5:20 PM34 °FPartly cloudy.7 mph93%30.09 "HgN/A
4:50 PM34 °FScattered clouds.3 mph100%30.09 "HgN/A
4:20 PM34 °FBroken clouds.3 mph100%30.09 "HgN/A
3:50 PM32 °FSnow flurries. Broken clouds.6 mph100%30.09 "Hg4 mi
3:20 PM32 °FSnow flurries. Broken clouds.13 mph100%30.09 "Hg1 mi
2:50 PM36 °FBroken clouds.10 mph93%30.09 "HgN/A
2:20 PM36 °FPartly sunny.12 mph93%30.09 "HgN/A
1:50 PM36 °FPartly sunny.9 mph87%30.09 "HgN/A
1:20 PM36 °FPartly sunny.10 mph93%30.09 "HgN/A
12:50 PM36 °FSprinkles. Partly sunny.10 mph87%30.09 "HgN/A
12:20 PM34 °FBroken clouds.9 mph93%30.09 "HgN/A
11:50 AM34 °FSnow flurries. Partly sunny.10 mph93%30.09 "HgN/A
11:20 AM36 °FBroken clouds.10 mph87%30.09 "HgN/A
10:50 AM36 °FPartly sunny.12 mph87%30.09 "HgN/A
10:20 AM36 °FPartly sunny.13 mph87%30.09 "HgN/A
9:50 AM34 °FPartly sunny.10 mph93%30.09 "HgN/A
9:20 AM34 °FSprinkles. Broken clouds.12 mph93%30.09 "HgN/A
8:50 AM34 °FPartly sunny.6 mph93%30.09 "HgN/A
8:20 AM34 °FPartly sunny.7 mph93%30.09 "HgN/A
7:50 AM34 °FPassing clouds.10 mph93%30.07 "HgN/A
7:20 AM34 °FSprinkles. Passing clouds.9 mph93%30.07 "HgN/A
6:50 AM34 °FSnow flurries. Passing clouds.10 mph93%30.07 "HgN/A
6:20 AM34 °FPassing clouds.9 mph93%30.04 "HgN/A
5:50 AM36 °FPassing clouds.10 mph93%30.04 "HgN/A
5:20 AM34 °FPartly cloudy.9 mph100%30.04 "HgN/A
4:50 AM34 °FPartly cloudy.7 mph100%30.04 "HgN/A
4:20 AM34 °FPartly cloudy.9 mph100%30.04 "HgN/A
3:50 AM34 °FPassing clouds.9 mph100%30.04 "HgN/A
3:20 AM34 °FPartly cloudy.9 mph100%30.04 "HgN/A
Weather by CustomWeather, © 2014

See weather overviewHow to use our weather pages